Weather History for Spokane Felts, WA

Change the Weather History Date:

Tuesday, March 25, 2014

  Actual Average Record
Temperature  
Mean Temperature 43 °F 43 °F  
Max Temperature 55 °F 53 °F 66 °F (1997)
Min Temperature 31 °F 34 °F 24 °F (2008)
Degree Days  
Heating Degree Days 22 22  
Month to date heating degree days 617 624  
Since 1 July heating degree days 5296 5195  
Cooling Degree Days 0 0  
Month to date cooling degree days 0 0  
Year to date cooling degree days 0 0  
Moisture  
Dew Point 29 °F    
Average Humidity 58    
Maximum Humidity 78    
Minimum Humidity 38    
Precipitation  
Precipitation 0.00 in 0.06 in 0.31 in (2001)
Month to date precipitation 2.54 1.21  
Year to date precipitation 5.18 4.54  
Sea Level Pressure  
Sea Level Pressure 29.75 in    
Wind  
Wind Speed 3 mph (SE)    
Max Wind Speed 16 mph    
Max Gust Speed 20 mph    
Visibility 10 miles    
Events      
T = Trace of Precipitation, MM = Missing Value Source: NWS Daily Summary

Daily Weather History Graph

Daily Weather History Graph

Search for Another Location

Airport:

Trip Planner

Search our weather history database for the weather conditions in past years. The results will help you decide how hot, cold, wet, or windy it might be!

Date:

Astronomy

Mar. 25, 2014 Rise Set
Actual Time 6:41 AM PDT 7:09 PM PDT
Civil Twilight 6:10 AM PDT 7:40 PM PDT
Nautical Twilight 5:34 AM PDT 8:17 PM PDT
Astronomical Twilight 4:56 AM PDT 8:55 PM PDT
Moon 3:28 AM PDT (3/25) 1:24 PM PDT (3/25)
Length of Visible Light 13h 29m
Length of Day
12h 27m
Waning Crescent, 31% of the Moon is Illuminated
Mar 25
Waning Crescent
Mar 30
New
Apr 7
First Quarter
Apr 15
Full
Apr 22
Last Quarter

Hourly Weather History & Observations

Time (PDT) Temp. Windchill Dew Point Humidity Pressure Visibility Wind Dir Wind Speed Gust Speed Precip Events Conditions
12:53 AM 33.1 °F 28.7 °F 25.0 °F 72% 30.01 in 10.0 mi NE 4.6 mph - N/A   Clear
1:53 AM 32.0 °F - 25.0 °F 75% 29.99 in 10.0 mi Calm Calm - N/A   Clear
2:53 AM 33.1 °F 30.0 °F 27.0 °F 78% 29.96 in 10.0 mi NE 3.5 mph - N/A   Clear
3:53 AM 34.0 °F - 25.0 °F 70% 29.92 in 10.0 mi Calm Calm - N/A   Clear
4:53 AM 32.0 °F 28.7 °F 26.1 °F 79% 29.89 in 10.0 mi North 3.5 mph - N/A   Clear
5:53 AM 33.1 °F - 27.0 °F 78% 29.85 in 10.0 mi Calm Calm - N/A   Clear
6:53 AM 33.1 °F - 27.0 °F 78% 29.83 in 10.0 mi Calm Calm - N/A   Clear
7:53 AM 35.1 °F - 28.0 °F 76% 29.81 in 10.0 mi Calm Calm - N/A   Clear
8:53 AM 37.9 °F - 27.0 °F 65% 29.78 in 10.0 mi Calm Calm - N/A   Clear
9:53 AM 42.1 °F - 25.0 °F 51% 29.76 in 10.0 mi Calm Calm - N/A   Clear
10:53 AM 48.0 °F - 27.0 °F 44% 29.72 in 10.0 mi North 3.5 mph - N/A   Clear
11:53 AM 50.0 °F - 27.0 °F 41% 29.70 in 10.0 mi ESE 5.8 mph - N/A   Clear
12:53 PM 51.1 °F - 28.0 °F 41% 29.68 in 10.0 mi ESE 5.8 mph - N/A   Clear
1:53 PM 53.1 °F - 28.9 °F 40% 29.67 in 10.0 mi Calm Calm - N/A   Overcast
2:53 PM 54.0 °F - 32.0 °F 43% 29.63 in 10.0 mi ESE 9.2 mph - N/A   Overcast
3:53 PM 52.0 °F - 30.9 °F 45% 29.64 in 10.0 mi SW 10.4 mph - N/A   Overcast
4:53 PM 50.0 °F - 33.1 °F 52% 29.65 in 10.0 mi South 10.4 mph - N/A   Mostly Cloudy
5:53 PM 48.9 °F - 30.9 °F 50% 29.63 in 10.0 mi Calm Calm - N/A   Overcast
6:53 PM 48.0 °F - 30.9 °F 52% 29.63 in 10.0 mi Calm Calm - N/A   Clear
7:53 PM 48.0 °F - 28.9 °F 48% 29.64 in 10.0 mi SW 6.9 mph - N/A   Partly Cloudy
8:53 PM 46.9 °F - 30.9 °F 54% 29.64 in 10.0 mi Calm Calm - N/A   Clear
9:53 PM 44.1 °F - 32.0 °F 63% 29.62 in 10.0 mi Calm Calm - N/A   Clear
10:53 PM 45.0 °F 40.6 °F 36.0 °F 71% 29.63 in 10.0 mi SSW 8.1 mph - N/A   Scattered Clouds
11:53 PM 45.0 °F 40.6 °F 35.1 °F 68% 29.61 in 10.0 mi SW 8.1 mph - N/A   Clear